Regional Weather Roundup
Issued by NWS

Home | Current Version | Previous Version | Text Only | Print | Product List | Glossary On
Versions: 1 2 3 4 5 6 7 8 9 10 11 12 13 14 15 16 17 18 19 20 21 22 23 24 25 26 27
000
ASUS45 KREV 030710
RWRNV
NEVADA REGIONAL WEATHER ROUNDUP
NATIONAL WEATHER SERVICE RENO NV
1200 AM PDT TUE MAY 03 2016

NOTE: "FAIR" INDICATES FEW OR NO CLOUDS BELOW 12,000 FEET WITH NO
SIGNIFICANT WEATHER AND/OR OBSTRUCTIONS TO VISIBILITY.

NVZ001-003-004-030800-
WESTERN NEVADA

CITY           SKY/WX    TMP DP  RH WIND       PRES   REMARKS
RENO           CLEAR     57  37  47 NW6       30.13R
CARSON CITY    FAIR      48  34  57 CALM      30.14R
MINDEN         FAIR      45  37  76 SE7       30.14R
SLIDE MTN        N/A     37  27  65 E10         N/A
PYRAMID LAKE     N/A     59 N/A N/A NW1         N/A
FALLON         CLEAR     58  31  35 SE7       30.08S
LOVELOCK       CLEAR     49  22  34 CALM      30.08S
$$

NVZ002-CAZ072-073-030800-
NORTHERN AND CENTRAL SIERRA

CITY           SKY/WX    TMP DP  RH WIND       PRES   REMARKS
S. LAKE TAHOE  CLEAR     37  33  85 S5        30.19S
TRUCKEE        PTCLDY    36  34  93 SE5       30.20S
SQUAW VLY 8000   N/A     37  32  81 CALM        N/A
SUSANVILLE     CLEAR     50  37  62 SW5       30.12S
BLUE CANYON    PTCLDY    52  35  52 NE5       30.17F
MAMMOTH LAKES  FAIR      37  29  72 CALM      30.23S
BRIDGEPORT     FAIR      39  31  72 CALM      30.19S
$$

NVZ030-031-036-030800-
NORTHERN NEVADA

CITY           SKY/WX    TMP DP  RH WIND       PRES   REMARKS
ELKO           CLEAR     45  35  68 CALM      30.18S
WINNEMUCCA     CLEAR     45  34  65 E7        30.13S
WENDOVER       CLEAR     52  37  58 CALM      30.18S
$$

NVZ035-037-030800-
CENTRAL NEVADA

CITY           SKY/WX    TMP DP  RH WIND       PRES   REMARKS
ELY            MOCLDY    38  32  79 SW5       30.24S
EUREKA           N/A     39  33  79 CALM      30.20S
$$

NVZ013-014-030800-
SOUTH CENTRAL NEVADA

CITY           SKY/WX    TMP DP  RH WIND       PRES   REMARKS
TONOPAH        CLEAR     45  35  68 N12       30.20R
$$

NVZ017-020-022-030800-
SOUTHERN NEVADA

CITY           SKY/WX    TMP DP  RH WIND       PRES   REMARKS
LAS VEGAS      CLEAR     71  35  26 NE8       30.01R
N. LAS VEGAS   CLEAR     68  37  32 N5        30.04S
NELLIS AFB     CLEAR     64  41  43 N7        30.03S
HENDERSON      CLEAR     62  44  51 S3        30.07S
MERCURY        CLEAR     59  41  51 E6        30.09S
$$




USA.gov is the U.S. government's official web portal to all federal, state and local government web resources and services.